Latest Weather Observations for Roseworthy

IDS60801

Issued at 9:31 pm CDT Saturday 25 February 2017 (issued every 30 minutes, with the page automatically refreshed every 10 minutes)

About weather observations | Map of weather stations | Latest weather observations for SA | Other Formats
Station Details ID: 023122 Name: ROSEWORTHY AWS Lat: -34.51 Lon: 138.68 Height: 65.0 m
Data from the previous 72 hours. | See also: Recent months at Roseworthy
Date/Time
CDT
Temp
°C
App
Temp
°C
Dew
Point
°C
Rel
Hum
%
Delta-T
°C
Wind Press
QNH
hPa
Press
MSL
hPa
Rain since
9am
mm
Dir  Spd
km/h
Gust
km/h
Spd
kts
Gust
kts
25/09:30pm 16.4 13.7 8.9 61 3.9 SSE 13 13 7 7 1021.5 1021.3 -
25/09:00pm 17.4 14.0 9.3 59 4.2 SSE 17 22 9 12 1021.3 1021.0 0.0
25/08:30pm 18.2 14.7 8.7 54 4.9 SSE 17 22 9 12 1021.0 1020.7 0.0
25/08:00pm 19.3 15.3 8.3 49 5.7 SE 19 24 10 13 1020.7 1020.4 0.0
25/07:30pm 20.7 16.6 8.0 44 6.6 SE 19 26 10 14 1020.3 1020.0 0.0
25/07:00pm 22.0 17.7 7.0 38 7.7 SE 19 28 10 15 1020.3 1020.0 0.0
25/06:30pm 23.0 18.5 6.3 34 8.5 SE 19 28 10 15 1020.2 1019.9 0.0
25/06:00pm 24.2 19.7 6.9 33 9.0 SSE 20 26 11 14 1020.1 1019.8 0.0
25/05:30pm 24.6 20.1 6.8 32 9.3 SE 20 28 11 15 1019.9 1019.6 0.0
25/05:00pm 25.3 21.0 7.0 31 9.6 SE 19 26 10 14 1020.1 1019.8 0.0
25/04:30pm 25.7 21.7 6.8 30 9.9 SSE 17 24 9 13 1020.3 1020.0 0.0
25/04:00pm 25.1 21.9 6.8 31 9.6 SE 13 22 7 12 1020.6 1020.3 0.0
25/03:30pm 25.2 22.2 7.8 33 9.2 S 13 24 7 13 1021.0 1020.7 0.0
25/03:00pm 25.1 21.1 6.8 31 9.5 SSE 17 39 9 21 1021.4 1021.1 0.0
25/02:30pm 24.7 21.0 6.4 31 9.4 S 15 28 8 15 1022.0 1021.7 0.0
25/02:00pm 24.1 20.9 6.8 33 9.0 SE 13 20 7 11 1022.5 1022.2 0.0
25/01:30pm 23.6 20.3 8.1 37 8.2 S 15 24 8 13 1022.7 1022.5 0.0
25/01:00pm 23.3 19.9 9.3 41 7.6 SE 17 22 9 12 1023.2 1023.0 0.0
25/12:30pm 21.8 17.8 6.5 37 7.8 SE 17 30 9 16 1023.5 1023.3 0.0
25/12:00pm 21.5 17.3 7.3 40 7.3 SSE 19 28 10 15 1024.1 1023.9 0.0
25/11:30am 20.6 16.2 7.6 43 6.7 ESE 20 30 11 16 1024.3 1024.1 0.0
25/11:00am 20.3 15.2 7.7 44 6.5 SE 24 32 13 17 1024.8 1024.6 0.0
25/10:30am 20.0 15.1 8.4 47 6.0 ESE 24 35 13 19 1024.8 1024.6 0.0
25/10:00am 19.1 14.1 8.1 49 5.7 SE 24 33 13 18 1024.9 1024.7 0.0
25/09:30am 18.0 13.0 8.0 52 5.1 ESE 24 39 13 21 1024.9 1024.7 0.0
25/09:00am 17.0 11.6 8.2 56 4.5 ESE 26 33 14 18 1024.9 1024.7 0.0
25/08:30am 16.0 11.7 8.0 59 4.0 ESE 20 32 11 17 1025.1 1024.9 0.0
25/08:00am 14.9 11.0 7.2 60 3.8 ESE 17 26 9 14 1025.0 1024.8 0.0
25/07:30am 13.8 10.0 7.6 66 3.0 SE 17 24 9 13 1024.6 1024.4 0.0
25/07:00am 13.2 10.0 8.3 72 2.4 SE 15 20 8 11 1024.4 1024.2 0.0
25/06:30am 13.3 9.7 8.4 72 2.4 SE 17 22 9 12 1024.3 1024.1 0.0
25/06:00am 13.3 10.5 8.4 72 2.4 SE 13 20 7 11 1023.6 1023.4 0.0
25/05:30am 13.1 10.3 8.4 73 2.3 SE 13 19 7 10 1023.5 1023.3 0.0
25/05:00am 13.4 10.7 8.9 74 2.3 SE 13 20 7 11 1023.5 1023.3 0.0
25/04:30am 13.5 10.9 9.2 75 2.2 SE 13 19 7 10 1023.5 1023.3 0.0
25/04:00am 13.3 10.7 9.5 78 1.9 SE 13 15 7 8 1023.7 1023.5 0.0
25/03:30am 12.8 11.0 9.3 79 1.8 ESE 9 11 5 6 1023.7 1023.5 0.0
25/03:00am 13.5 11.4 9.7 78 1.9 SE 11 19 6 10 1023.9 1023.7 0.0
25/02:30am 12.3 10.4 9.1 81 1.6 SE 9 15 5 8 1024.2 1024.0 0.0
25/02:00am 10.5 8.8 7.6 82 1.4 SE 6 9 3 5 1024.2 1024.0 0.0
25/01:30am 10.1 8.2 7.5 84 1.2 SE 7 7 4 4 1024.3 1024.1 0.0
25/01:00am 9.9 7.9 7.3 84 1.2 SE 7 9 4 5 1024.5 1024.3 0.0
25/12:30am 9.9 9.3 7.2 83 1.3 CALM 0 6 0 3 1024.8 1024.6 0.0
25/12:00am 10.3 9.1 6.6 78 1.7 SE 2 6 1 3 1025.0 1024.8 0.0
 
Date/Time
CDT
Temp
°C
App
Temp
°C
Dew
Point
°C
Rel
Hum
%
Delta-T
°C
Wind Press
QNH
hPa
Press
MSL
hPa
Rain since
9am
mm
Dir  Spd
km/h
Gust
km/h
Spd
kts
Gust
kts
24/11:30pm 13.3 11.8 9.0 75 2.2 SSE 7 9 4 5 1025.1 1024.9 0.0
24/11:00pm 13.6 11.3 8.9 73 2.4 S 11 13 6 7 1025.4 1025.2 0.0
24/10:30pm 14.4 12.0 8.8 69 2.8 SSE 11 17 6 9 1025.4 1025.2 0.0
24/10:00pm 15.2 12.5 8.9 66 3.2 SSE 13 19 7 10 1025.4 1025.2 0.0
24/09:30pm 15.2 12.4 8.4 64 3.4 S 13 17 7 9 1025.4 1025.2 0.0
24/09:00pm 16.4 12.8 8.4 59 4.1 SSE 17 24 9 13 1025.2 1025.0 0.0
24/08:30pm 17.1 13.2 8.5 57 4.4 SSE 19 28 10 15 1024.9 1024.7 0.0
24/08:00pm 17.9 13.7 8.2 53 5.0 SSE 20 26 11 14 1024.6 1024.4 0.0
24/07:30pm 19.0 13.7 8.4 50 5.5 SSE 26 35 14 19 1024.2 1024.0 0.0
24/07:00pm 20.0 15.2 8.7 48 5.9 SE 24 35 13 19 1023.8 1023.6 0.0
24/06:30pm 21.9 17.7 8.1 41 7.2 SSE 20 32 11 17 1023.5 1023.3 0.0
24/06:00pm 22.6 17.5 7.6 38 7.8 SSE 24 35 13 19 1023.3 1023.1 0.0
24/05:30pm 24.1 19.8 7.7 35 8.6 SSE 20 28 11 15 1022.9 1022.7 0.0
24/05:00pm 25.1 20.6 8.6 35 8.9 SSE 22 30 12 16 1022.7 1022.5 0.0
24/04:30pm 25.6 22.1 8.6 34 9.2 SSE 17 26 9 14 1022.7 1022.5 0.0
24/04:00pm 24.7 19.5 10.2 40 8.0 WSW 28 39 15 21 1022.8 1022.6 0.0
24/03:30pm 24.3 19.2 10.6 42 7.6 WSW 28 43 15 23 1023.3 1023.1 0.0
24/03:00pm 24.5 20.4 10.0 40 8.0 WSW 22 35 12 19 1023.7 1023.5 0.0
24/02:30pm 24.3 19.7 9.5 39 8.0 WSW 24 33 13 18 1024.0 1023.8 0.0
24/02:00pm 24.5 22.1 8.5 36 8.6 SSW 11 22 6 12 1024.3 1024.1 0.0
24/01:30pm 23.7 21.0 8.9 39 7.9 SSW 13 20 7 11 1024.6 1024.4 0.0
24/01:00pm 22.4 18.6 7.4 38 7.8 SSE 17 24 9 13 1024.9 1024.7 0.0
24/12:30pm 22.0 19.5 8.2 41 7.2 SE 11 20 6 11 1025.3 1025.1 0.0
24/12:00pm 21.8 18.9 8.3 42 7.1 E 13 24 7 13 1025.6 1025.4 0.0
24/11:30am 21.1 18.3 8.7 45 6.5 ESE 13 24 7 13 1026.0 1025.8 0.0
24/11:00am 20.9 17.9 9.2 47 6.2 ESE 15 24 8 13 1026.2 1026.0 0.0
24/10:30am 19.2 15.7 8.8 51 5.4 SE 17 24 9 13 1026.4 1026.2 0.0
24/10:00am 18.7 15.4 9.5 55 4.9 SE 17 22 9 12 1026.4 1026.2 0.0
24/09:30am 17.5 14.9 9.2 58 4.3 SE 13 20 7 11 1026.5 1026.3 0.0
24/09:00am 16.5 15.3 9.4 63 3.7 SE 6 11 3 6 1026.4 1026.2 0.0
24/08:30am 14.9 13.8 10.5 75 2.3 E 7 9 4 5 1026.1 1025.9 0.0
24/08:00am 11.8 10.6 10.2 90 0.8 ENE 7 9 4 5 1025.9 1025.7 0.0
24/07:30am 8.0 5.9 6.6 91 0.6 E 7 9 4 5 1025.6 1025.4 0.0
24/07:00am 7.2 4.5 5.7 90 0.7 ENE 9 11 5 6 1025.2 1025.0 0.0
24/06:30am 7.1 4.3 5.3 88 0.8 E 9 11 5 6 1024.7 1024.5 0.0
24/06:00am 8.2 6.0 6.3 88 0.9 SE 7 9 4 5 1024.5 1024.3 0.0
24/05:30am 8.8 6.4 6.9 88 0.9 ESE 9 11 5 6 1024.2 1024.0 0.0
24/05:00am 8.8 6.8 7.3 90 0.7 ESE 7 9 4 5 1024.0 1023.8 0.0
24/04:30am 8.4 6.4 6.9 90 0.7 ESE 7 9 4 5 1023.8 1023.6 0.0
24/04:00am 8.4 6.3 6.7 89 0.8 ENE 7 9 4 5 1023.8 1023.6 0.0
24/03:30am 8.8 6.9 6.9 88 0.9 NE 6 11 3 6 1023.7 1023.5 0.0
24/03:00am 9.2 8.6 7.2 87 0.9 CALM 0 0 0 0 1023.8 1023.6 0.0
24/02:30am 9.6 9.0 7.4 86 1.0 CALM 0 0 0 0 1023.8 1023.6 0.0
24/02:00am 10.6 9.2 8.7 88 0.9 ENE 6 7 3 4 1023.7 1023.5 0.0
24/01:30am 10.4 9.6 8.2 86 1.1 ESE 2 7 1 4 1023.7 1023.5 0.0
24/01:00am 10.9 9.7 8.1 83 1.4 SE 4 6 2 3 1023.8 1023.6 0.0
24/12:30am 12.8 11.6 9.4 80 1.7 SE 6 9 3 5 1023.7 1023.5 0.0
24/12:00am 14.3 12.8 10.7 79 1.9 SE 9 11 5 6 1023.7 1023.5 0.0
 
Date/Time
CDT
Temp
°C
App
Temp
°C
Dew
Point
°C
Rel
Hum
%
Delta-T
°C
Wind Press
QNH
hPa
Press
MSL
hPa
Rain since
9am
mm
Dir  Spd
km/h
Gust
km/h
Spd
kts
Gust
kts
23/11:30pm 15.2 13.4 10.8 75 2.3 SE 11 17 6 9 1023.6 1023.4 0.0
23/11:00pm 15.9 13.8 11.1 73 2.6 SE 13 17 7 9 1023.5 1023.3 0.0
23/10:30pm 16.2 14.9 12.6 79 2.0 S 11 17 6 9 1023.2 1023.0 0.0
23/10:00pm 16.0 14.5 11.8 76 2.3 SW 11 13 6 7 1022.9 1022.7 0.0
23/09:30pm 16.8 15.3 11.9 73 2.7 SW 11 15 6 8 1022.8 1022.6 0.0
23/09:00pm 17.6 15.8 12.1 70 3.0 SW 13 17 7 9 1022.5 1022.2 0.0
23/08:30pm 18.1 15.8 11.9 67 3.4 SW 15 19 8 10 1022.0 1021.7 0.0
23/08:00pm 19.0 16.3 11.6 62 4.1 SW 17 24 9 13 1021.5 1021.2 0.0
23/07:30pm 20.4 17.0 10.5 53 5.4 SW 19 24 10 13 1021.3 1021.0 0.0
23/07:00pm 21.1 16.9 9.7 48 6.1 SW 22 30 12 16 1021.0 1020.7 0.0
23/06:30pm 22.0 17.7 9.5 45 6.7 WSW 22 30 12 16 1020.8 1020.5 0.0
23/06:00pm 22.8 19.2 10.6 46 6.7 WSW 20 30 11 16 1020.6 1020.3 0.0
23/05:30pm 23.1 19.1 10.5 45 6.9 SW 22 33 12 18 1020.4 1020.1 0.0
23/05:00pm 24.2 20.2 9.0 38 8.2 WSW 20 32 11 17 1020.2 1019.9 0.0
23/04:30pm 24.5 20.7 8.9 37 8.4 SW 19 30 10 16 1020.1 1019.8 0.0
23/04:00pm 24.4 20.4 9.2 38 8.3 SW 20 28 11 15 1020.0 1019.7 0.0
23/03:30pm 25.2 21.3 9.5 37 8.6 WSW 20 32 11 17 1020.2 1019.9 0.0
23/03:00pm 23.9 20.1 9.9 41 7.7 WSW 20 32 11 17 1020.2 1019.9 0.0
23/02:30pm 24.3 21.9 10.2 41 7.8 SW 13 24 7 13 1020.2 1019.9 0.0
23/02:00pm 24.8 22.8 11.4 43 7.6 WSW 13 26 7 14 1020.4 1020.1 0.0
23/01:30pm 25.0 23.0 11.6 43 7.6 W 13 20 7 11 1020.3 1020.0 0.0
23/01:00pm 23.2 20.2 10.6 45 7.0 SW 17 24 9 13 1020.4 1020.1 0.0
23/12:30pm 22.0 19.6 10.2 47 6.4 SSW 13 17 7 9 1020.6 1020.3 0.0
23/12:00pm 22.2 19.7 12.2 53 5.6 WSW 17 24 9 13 1020.8 1020.5 0.0
23/11:30am 21.3 18.9 11.3 53 5.5 SW 15 22 8 12 1020.9 1020.6 0.0
23/11:00am 21.7 20.1 12.8 57 5.1 SSW 13 20 7 11 1020.9 1020.6 0.0
23/10:30am 19.8 18.2 12.8 64 3.9 SSW 13 20 7 11 1020.9 1020.6 0.0
23/10:00am 19.4 17.5 12.9 66 3.7 SSE 15 20 8 11 1020.6 1020.3 0.0
23/09:30am 19.2 17.2 12.7 66 3.6 SW 15 22 8 12 1020.2 1019.9 0.0
23/09:00am 18.5 16.9 12.9 70 3.1 WNW 13 17 7 9 1020.0 1019.7 0.0
23/08:30am 16.9 15.6 12.4 75 2.5 NNW 11 13 6 7 1019.6 1019.3 0.0
23/08:00am 14.4 12.8 11.4 82 1.6 NNW 11 13 6 7 1019.2 1018.9 0.0
23/07:30am 12.3 10.4 10.4 88 1.0 N 11 13 6 7 1018.6 1018.3 0.0
23/07:00am 12.5 10.5 10.2 86 1.2 WNW 11 13 6 7 1018.1 1017.8 0.0
23/06:30am 12.3 10.1 9.5 83 1.4 WNW 11 13 6 7 1017.7 1017.4 0.0
23/06:00am 12.9 10.9 10.1 83 1.4 W 11 13 6 7 1017.4 1017.1 0.0
23/05:30am 13.7 10.2 10.9 83 1.5 W 20 24 11 13 1016.9 1016.6 0.0
23/05:00am 13.0 10.0 10.7 86 1.2 WNW 17 19 9 10 1016.9 1016.6 0.0
23/04:30am 12.8 10.5 10.3 85 1.3 WNW 13 17 7 9 1016.9 1016.6 0.0
23/04:00am 12.7 10.0 10.2 85 1.3 W 15 15 8 8 1016.7 1016.4 0.0
23/03:30am 12.5 10.0 9.7 83 1.4 W 13 17 7 9 1016.5 1016.2 0.0
23/03:00am 13.4 11.0 10.2 81 1.7 W 13 13 7 7 1016.6 1016.3 0.0
23/02:30am 15.4 13.1 11.6 78 2.1 WSW 15 19 8 10 1016.6 1016.3 0.0
23/02:00am 16.2 14.1 12.4 78 2.1 WSW 15 20 8 11 1016.7 1016.4 0.0
23/01:30am 16.4 14.6 12.2 76 2.3 WSW 13 19 7 10 1017.0 1016.7 0.0
23/01:00am 16.4 15.0 13.3 82 1.7 W 13 19 7 10 1017.0 1016.7 0.0
23/12:30am 15.1 13.3 12.2 83 1.6 W 13 13 7 7 1016.8 1016.5 0.0
23/12:00am 15.3 13.4 11.9 80 1.8 W 13 15 7 8 1016.6 1016.3 0.0
 
Date/Time
CDT
Temp
°C
App
Temp
°C
Dew
Point
°C
Rel
Hum
%
Delta-T
°C
Wind Press
QNH
hPa
Press
MSL
hPa
Rain since
9am
mm
Dir  Spd
km/h
Gust
km/h
Spd
kts
Gust
kts
22/11:30pm 15.7 13.9 12.1 79 2.0 W 13 15 7 8 1016.7 1016.4 0.0
22/11:00pm 15.8 13.8 11.6 76 2.3 WNW 13 15 7 8 1016.7 1016.4 0.0
22/10:30pm 15.6 13.8 11.0 74 2.5 W 11 15 6 8 1016.5 1016.2 0.0
22/10:00pm 16.5 14.6 10.6 68 3.1 W 11 15 6 8 1016.2 1015.9 0.0

Other Formats:

Comma delimited format used in spreadsheet applications
http://www.bom.gov.au/fwo/IDS60801/IDS60801.95671.axf

JavaScript Object Notation format (JSON) in row-major order
http://www.bom.gov.au/fwo/IDS60801/IDS60801.95671.json